Time,TemperatureF,DewpointF,PressureIn,WindDirection,WindDirectionDegrees,WindSpeedMPH,WindSpeedGustMPH,Humidity,HourlyPrecipIn,Conditions,Clouds,dailyrainin,SolarRadiationWatts/m^2,SoftwareType,DateUTC
2013-02-08 00:02:00,66.0,65.0,-100.00,South,171,2.0,3.0,96,0.00,,,0.00,0.000000,,2013-02-08 05:02:00,
2013-02-08 00:12:00,66.0,65.0,-100.00,South,171,2.0,3.0,96,0.00,,,0.00,0.000000,,2013-02-08 05:12:00,
2013-02-08 00:22:00,66.0,65.0,-100.00,South,171,2.0,3.0,96,0.00,,,0.00,0.000000,,2013-02-08 05:22:00,
2013-02-08 00:32:00,66.0,65.0,-100.00,South,171,2.0,3.0,96,0.00,,,0.00,0.000000,,2013-02-08 05:32:00,
2013-02-08 01:02:00,63.0,62.0,-100.00,ESE,105,2.0,2.0,96,0.00,,,0.00,0.000000,,2013-02-08 06:02:00,
2013-02-08 01:11:00,63.0,62.0,-100.00,ESE,105,2.0,2.0,96,0.00,,,0.00,0.000000,,2013-02-08 06:11:00,
2013-02-08 01:22:00,63.0,62.0,-100.00,ESE,105,2.0,2.0,96,0.00,,,0.00,0.000000,,2013-02-08 06:22:00,
2013-02-08 01:32:00,63.0,62.0,-100.00,ESE,105,2.0,2.0,96,0.00,,,0.00,0.000000,,2013-02-08 06:32:00,
2013-02-08 02:02:00,66.0,65.0,-100.00,SE,137,2.0,5.0,98,-99.99,,,0.00,0.000000,,2013-02-08 07:02:00,
2013-02-08 02:12:00,66.0,65.0,-100.00,SE,137,2.0,5.0,98,-99.99,,,0.00,0.000000,,2013-02-08 07:12:00,
2013-02-08 02:22:00,66.0,65.0,-100.00,SE,137,2.0,5.0,98,-99.99,,,0.00,0.000000,,2013-02-08 07:22:00,
2013-02-08 02:32:00,66.0,65.0,-100.00,SE,137,2.0,5.0,98,-99.99,,,0.00,0.000000,,2013-02-08 07:32:00,
2013-02-08 03:01:00,68.0,67.0,-100.00,South,185,3.0,5.0,98,0.00,,,0.00,0.000000,,2013-02-08 08:01:00,
2013-02-08 03:11:00,68.0,67.0,-100.00,South,185,3.0,5.0,98,0.00,,,0.00,0.000000,,2013-02-08 08:11:00,
2013-02-08 03:22:00,68.0,67.0,-100.00,South,185,3.0,5.0,98,0.00,,,0.00,0.000000,,2013-02-08 08:22:00,
2013-02-08 03:32:00,68.0,67.0,-100.00,South,185,3.0,5.0,98,0.00,,,0.00,0.000000,,2013-02-08 08:32:00,
2013-02-08 03:52:00,71.0,70.0,-100.00,SSW,202,4.0,6.0,97,0.00,,,0.00,0.000000,,2013-02-08 08:52:00,
2013-02-08 04:03:00,71.0,70.0,-100.00,SSW,202,4.0,6.0,97,0.00,,,0.00,0.000000,,2013-02-08 09:03:00,
2013-02-08 04:11:00,71.0,70.0,-100.00,SSW,202,4.0,6.0,97,0.00,,,0.00,0.000000,,2013-02-08 09:11:00,
2013-02-08 04:21:00,71.0,70.0,-100.00,SSW,202,4.0,6.0,97,0.00,,,0.00,0.000000,,2013-02-08 09:21:00,
2013-02-08 04:32:00,71.0,70.0,-100.00,SSW,202,4.0,6.0,97,0.00,,,0.00,0.000000,,2013-02-08 09:32:00,
2013-02-08 05:01:00,72.0,70.0,-100.00,SSW,194,4.0,7.0,95,0.00,,,0.00,0.000000,,2013-02-08 10:01:00,
2013-02-08 05:12:00,72.0,70.0,-100.00,SSW,194,4.0,7.0,95,0.00,,,0.00,0.000000,,2013-02-08 10:12:00,
2013-02-08 05:22:00,72.0,70.0,-100.00,SSW,194,4.0,7.0,95,0.00,,,0.00,0.000000,,2013-02-08 10:22:00,
2013-02-08 05:32:00,72.0,70.0,-100.00,SSW,194,4.0,7.0,95,0.00,,,0.00,0.000000,,2013-02-08 10:32:00,
2013-02-08 06:02:00,72.0,70.0,-100.00,SSW,204,3.0,6.0,95,0.00,,,0.00,0.000000,,2013-02-08 11:02:00,
2013-02-08 06:11:00,72.0,70.0,-100.00,SSW,204,3.0,6.0,95,0.00,,,0.00,0.000000,,2013-02-08 11:11:00,
2013-02-08 06:22:00,72.0,70.0,-100.00,SSW,204,3.0,6.0,95,0.00,,,0.00,0.000000,,2013-02-08 11:22:00,
2013-02-08 06:32:00,72.0,70.0,-100.00,SSW,204,3.0,6.0,95,0.00,,,0.00,0.000000,,2013-02-08 11:32:00,
2013-02-08 06:53:00,72.0,70.0,-100.00,SW,231,3.0,6.0,95,0.00,,,0.00,0.000000,,2013-02-08 11:53:00,
2013-02-08 07:02:00,72.0,70.0,-100.00,SW,231,3.0,6.0,95,0.00,,,0.00,0.000000,,2013-02-08 12:02:00,
2013-02-08 07:11:00,72.0,70.0,-100.00,SW,231,3.0,6.0,95,0.00,,,0.00,0.000000,,2013-02-08 12:11:00,
2013-02-08 07:22:00,72.0,70.0,-100.00,SW,231,3.0,6.0,95,0.00,,,0.00,0.000000,,2013-02-08 12:22:00,
2013-02-08 07:33:00,72.0,70.0,-100.00,SW,231,3.0,6.0,95,0.00,,,0.00,0.000000,,2013-02-08 12:33:00,
2013-02-08 07:52:00,71.0,70.0,-100.00,SW,218,1.0,4.0,96,0.00,,,0.00,10.000000,,2013-02-08 12:52:00,
2013-02-08 08:02:00,71.0,70.0,-100.00,SW,218,1.0,4.0,96,0.00,,,0.00,10.000000,,2013-02-08 13:02:00,
2013-02-08 08:12:00,71.0,70.0,-100.00,SW,218,1.0,4.0,96,0.00,,,0.00,10.000000,,2013-02-08 13:12:00,
2013-02-08 08:22:00,71.0,70.0,-100.00,SW,218,1.0,4.0,96,0.00,,,0.00,10.000000,,2013-02-08 13:22:00,
2013-02-08 08:32:00,71.0,70.0,-100.00,SW,218,1.0,4.0,96,0.00,,,0.00,10.000000,,2013-02-08 13:32:00,
2013-02-08 09:02:00,77.0,73.0,-100.00,WSW,237,4.0,8.0,87,0.00,,,0.00,155.000000,,2013-02-08 14:02:00,
2013-02-08 09:11:00,77.0,73.0,-100.00,WSW,237,4.0,8.0,87,0.00,,,0.00,155.000000,,2013-02-08 14:11:00,
2013-02-08 09:22:00,77.0,73.0,-100.00,WSW,237,4.0,8.0,87,0.00,,,0.00,155.000000,,2013-02-08 14:22:00,
2013-02-08 09:32:00,77.0,73.0,-100.00,WSW,237,4.0,8.0,87,0.00,,,0.00,155.000000,,2013-02-08 14:32:00,
2013-02-08 09:52:00,81.0,72.0,-100.00,WSW,241,6.0,12.0,73,0.00,,,0.00,350.000000,,2013-02-08 14:52:00,
2013-02-08 10:02:00,81.0,72.0,-100.00,WSW,241,6.0,12.0,73,0.00,,,0.00,350.000000,,2013-02-08 15:02:00,
2013-02-08 10:12:00,81.0,72.0,-100.00,WSW,241,6.0,12.0,73,0.00,,,0.00,350.000000,,2013-02-08 15:12:00,
2013-02-08 10:22:00,81.0,72.0,-100.00,WSW,241,6.0,12.0,73,0.00,,,0.00,350.000000,,2013-02-08 15:22:00,
2013-02-08 10:32:00,81.0,72.0,-100.00,WSW,241,6.0,12.0,73,0.00,,,0.00,350.000000,,2013-02-08 15:32:00,
2013-02-08 11:02:00,82.0,69.0,-100.00,West,260,6.0,12.0,65,0.00,,,0.00,490.000000,,2013-02-08 16:02:00,
2013-02-08 11:11:00,82.0,69.0,-100.00,West,260,6.0,12.0,65,0.00,,,0.00,490.000000,,2013-02-08 16:11:00,
2013-02-08 11:22:00,82.0,69.0,-100.00,West,260,6.0,12.0,65,0.00,,,0.00,490.000000,,2013-02-08 16:22:00,
2013-02-08 11:32:00,82.0,69.0,-100.00,West,260,6.0,12.0,65,0.00,,,0.00,490.000000,,2013-02-08 16:32:00,
2013-02-08 11:52:00,83.0,69.0,-100.00,West,266,7.0,13.0,63,0.00,,,0.00,638.000000,,2013-02-08 16:52:00,
2013-02-08 12:04:00,83.0,69.0,-100.00,West,266,7.0,13.0,63,0.00,,,0.00,638.000000,,2013-02-08 17:04:00,
2013-02-08 12:12:00,83.0,69.0,-100.00,West,266,7.0,13.0,63,0.00,,,0.00,638.000000,,2013-02-08 17:12:00,
2013-02-08 12:23:00,83.0,69.0,-100.00,West,266,7.0,13.0,63,0.00,,,0.00,638.000000,,2013-02-08 17:23:00,
2013-02-08 12:33:00,83.0,69.0,-100.00,West,266,7.0,13.0,63,0.00,,,0.00,638.000000,,2013-02-08 17:33:00,
2013-02-08 13:03:00,84.0,69.0,-100.00,West,266,7.0,15.0,61,0.00,,,0.00,706.000000,,2013-02-08 18:03:00,
2013-02-08 13:12:00,84.0,69.0,-100.00,West,266,7.0,15.0,61,0.00,,,0.00,706.000000,,2013-02-08 18:12:00,
2013-02-08 13:25:00,84.0,69.0,-100.00,West,266,7.0,15.0,61,0.00,,,0.00,706.000000,,2013-02-08 18:25:00,
2013-02-08 13:35:00,84.0,69.0,-100.00,West,266,7.0,15.0,61,0.00,,,0.00,706.000000,,2013-02-08 18:35:00,
2013-02-08 14:02:00,84.0,69.0,-100.00,West,265,8.0,15.0,60,0.00,,,0.00,705.000000,,2013-02-08 19:02:00,
2013-02-08 14:12:00,84.0,69.0,-100.00,West,265,8.0,15.0,60,0.00,,,0.00,705.000000,,2013-02-08 19:12:00,
2013-02-08 14:22:00,84.0,69.0,-100.00,West,265,8.0,15.0,60,0.00,,,0.00,705.000000,,2013-02-08 19:22:00,
2013-02-08 14:32:00,84.0,69.0,-100.00,West,265,8.0,15.0,60,0.00,,,0.00,705.000000,,2013-02-08 19:32:00,
2013-02-08 15:02:00,83.0,68.0,-100.00,WNW,292,8.0,14.0,61,0.00,,,0.00,624.000000,,2013-02-08 20:02:00,
2013-02-08 15:12:00,83.0,68.0,-100.00,WNW,292,8.0,14.0,61,0.00,,,0.00,624.000000,,2013-02-08 20:12:00,
2013-02-08 15:22:00,83.0,68.0,-100.00,WNW,292,8.0,14.0,61,0.00,,,0.00,624.000000,,2013-02-08 20:22:00,
2013-02-08 15:32:00,83.0,68.0,-100.00,WNW,292,8.0,14.0,61,0.00,,,0.00,624.000000,,2013-02-08 20:32:00,
2013-02-08 16:02:00,82.0,70.0,-100.00,West,281,7.0,14.0,68,0.00,,,0.00,396.000000,,2013-02-08 21:02:00,
2013-02-08 16:12:00,82.0,70.0,-100.00,West,281,7.0,14.0,68,0.00,,,0.00,396.000000,,2013-02-08 21:12:00,
2013-02-08 16:22:00,82.0,70.0,-100.00,West,281,7.0,14.0,68,0.00,,,0.00,396.000000,,2013-02-08 21:22:00,
2013-02-08 16:32:00,82.0,70.0,-100.00,West,281,7.0,14.0,68,0.00,,,0.00,396.000000,,2013-02-08 21:32:00,
2013-02-08 16:52:00,81.0,70.0,-100.00,West,280,7.0,13.0,70,0.00,,,0.00,347.000000,,2013-02-08 21:52:00,
2013-02-08 17:02:00,81.0,70.0,-100.00,West,280,7.0,13.0,70,0.00,,,0.00,347.000000,,2013-02-08 22:02:00,
2013-02-08 17:12:00,81.0,70.0,-100.00,West,280,7.0,13.0,70,0.00,,,0.00,347.000000,,2013-02-08 22:12:00,
2013-02-08 17:22:00,81.0,70.0,-100.00,West,280,7.0,13.0,70,0.00,,,0.00,347.000000,,2013-02-08 22:22:00,
2013-02-08 17:32:00,81.0,70.0,-100.00,West,280,7.0,13.0,70,0.00,,,0.00,347.000000,,2013-02-08 22:32:00,
2013-02-08 17:52:00,78.0,70.0,-100.00,WNW,298,6.0,12.0,77,0.00,,,0.00,150.000000,,2013-02-08 22:52:00,
2013-02-08 18:02:00,78.0,70.0,-100.00,WNW,298,6.0,12.0,77,0.00,,,0.00,150.000000,,2013-02-08 23:02:00,
2013-02-08 18:12:00,78.0,70.0,-100.00,WNW,298,6.0,12.0,77,0.00,,,0.00,150.000000,,2013-02-08 23:12:00,
2013-02-08 18:22:00,78.0,70.0,-100.00,WNW,298,6.0,12.0,77,0.00,,,0.00,150.000000,,2013-02-08 23:22:00,
2013-02-08 18:32:00,78.0,70.0,-100.00,WNW,298,6.0,12.0,77,0.00,,,0.00,150.000000,,2013-02-08 23:32:00,
2013-02-08 19:02:00,75.0,71.0,-100.00,NNW,327,6.0,12.0,87,0.00,,,0.00,17.000000,,2013-02-09 00:02:00,
2013-02-08 19:12:00,75.0,71.0,-100.00,NNW,327,6.0,12.0,87,0.00,,,0.00,17.000000,,2013-02-09 00:12:00,
2013-02-08 19:22:00,75.0,71.0,-100.00,NNW,327,6.0,12.0,87,0.00,,,0.00,17.000000,,2013-02-09 00:22:00,
2013-02-08 19:32:00,75.0,71.0,-100.00,NNW,327,6.0,12.0,87,0.00,,,0.00,17.000000,,2013-02-09 00:32:00,
2013-02-08 20:02:00,73.0,70.0,-100.00,NNW,345,4.0,9.0,90,0.00,,,0.00,0.000000,,2013-02-09 01:02:00,
2013-02-08 20:12:00,73.0,70.0,-100.00,NNW,345,4.0,9.0,90,0.00,,,0.00,0.000000,,2013-02-09 01:12:00,
2013-02-08 20:22:00,73.0,70.0,-100.00,NNW,345,4.0,9.0,90,0.00,,,0.00,0.000000,,2013-02-09 01:22:00,
2013-02-08 20:32:00,73.0,70.0,-100.00,NNW,345,4.0,9.0,90,0.00,,,0.00,0.000000,,2013-02-09 01:32:00,
2013-02-08 21:02:00,70.0,68.0,-100.00,North,358,2.0,6.0,92,0.00,,,0.00,0.000000,,2013-02-09 02:02:00,
2013-02-08 21:11:00,70.0,68.0,-100.00,North,358,2.0,6.0,92,0.00,,,0.00,0.000000,,2013-02-09 02:11:00,
2013-02-08 21:22:00,70.0,68.0,-100.00,North,358,2.0,6.0,92,0.00,,,0.00,0.000000,,2013-02-09 02:22:00,
2013-02-08 21:32:00,70.0,68.0,-100.00,North,358,2.0,6.0,92,0.00,,,0.00,0.000000,,2013-02-09 02:32:00,
2013-02-08 21:53:00,68.0,67.0,-100.00,NW,315,2.0,3.0,95,0.00,,,0.00,0.000000,,2013-02-09 02:53:00,
2013-02-08 22:02:00,68.0,67.0,-100.00,NW,315,2.0,3.0,95,0.00,,,0.00,0.000000,,2013-02-09 03:02:00,
2013-02-08 22:11:00,68.0,67.0,-100.00,NW,315,2.0,3.0,95,0.00,,,0.00,0.000000,,2013-02-09 03:11:00,
2013-02-08 22:22:00,68.0,67.0,-100.00,NW,315,2.0,3.0,95,0.00,,,0.00,0.000000,,2013-02-09 03:22:00,
2013-02-08 22:32:00,68.0,67.0,-100.00,NW,315,2.0,3.0,95,0.00,,,0.00,0.000000,,2013-02-09 03:32:00,
2013-02-08 23:03:00,69.0,68.0,-100.00,NW,322,3.0,5.0,96,0.00,,,0.00,0.000000,,2013-02-09 04:03:00,
2013-02-08 23:12:00,69.0,68.0,-100.00,NW,322,3.0,5.0,96,0.00,,,0.00,0.000000,,2013-02-09 04:12:00,
2013-02-08 23:23:00,69.0,68.0,-100.00,NW,322,3.0,5.0,96,0.00,,,0.00,0.000000,,2013-02-09 04:23:00,
2013-02-08 23:32:00,69.0,68.0,-100.00,NW,322,3.0,5.0,96,0.00,,,0.00,0.000000,,2013-02-09 04:32:00,